Location: Cerro Alto Campground
(35.4250°N, 120.7383°W)
Time: 13:06:11
(UTC-07:00)

Daily predictions for brighter satellites

Satellite Brightness Start Highest point End
(mag) Time Altitude Azimuth Time Altitude Azimuth Time Altitude Azimuth
Cosmos 494 Rocket 4.0 20:33:06 10° SSW 20:38:12 89° ESE 20:43:21 10° NNE
Cosmos 1726 Rocket 3.6 20:34:23 10° N 20:38:49 66° E 20:43:10 10° SSE
Cosmos 1743 2.7 20:37:32 10° N 20:41:24 81° E 20:45:12 10° S
Atlas Centaur 2 3.1 20:35:23 10° WSW 20:41:57 49° SSE 20:49:46 10° E
OAO 3 Copernicus 4.4 20:42:52 10° W 20:47:54 68° SSW 20:52:54 10° ESE
Cosmos 1939 Rocket 4.1 20:51:37 10° SE 20:55:09 28° ENE 20:58:41 10° NNE
Cosmos 1602 Rocket 4.0 20:52:17 10° SSE 20:56:29 42° E 21:00:42 10° NNE
Cosmos 2058 Rocket 3.0 20:53:44 10° N 20:58:07 84° E 21:02:28 10° S
Cosmos 1603 3.7 20:53:54 10° S 20:59:26 64° ESE 21:04:58 10° NNE
Milstar 3 Cent rocket 3.7 20:52:03 10° W 21:00:12 34° SSW 21:04:50 12° SE
Meteor 1-23 Rocket 4.4 20:56:52 10° SSW 21:02:30 78° W 21:08:14 10° N
Tsikada Rocket 4.4 20:56:55 10° SSE 21:02:59 47° E 21:09:04 10° NNE
SeaSat 1 4.0 21:01:19 10° ESE 21:05:00 23° NE 21:08:47 10° N
Aureole 2 Rocket 3.5 21:01:21 10° SSW 21:05:13 53° WNW 21:08:47 10° N
Meteor 2-9 Rocket 4.3 21:01:11 10° N 21:06:56 76° E 21:12:46 10° SSE
SJ-11-01 4.3 21:03:42 10° SSE 21:08:17 63° ENE 21:12:55 10° N
YAOGAN 11 4.2 21:04:28 10° S 21:08:49 76° WSW 21:13:09 10° NNW
FENGYUN 3A 4.1 21:05:03 10° S 21:10:21 64° W 21:15:43 10° NNW
Cosmos 1812 Rocket 4.5 21:06:28 10° NNE 21:10:23 31° ENE 21:13:09 16° SE
COSMOS 2455 2.8 21:09:20 10° SSW 21:15:15 65° ESE 21:21:13 10° NNE
Cosmos 2285 Rocket 4.3 21:10:26 10° NNW 21:16:44 71° WSW 21:23:03 10° S
H-2A R/B 3.9 21:13:05 10° S 21:16:51 43° W 21:20:38 10° NNW
deb Chang Zheng 4 3.6 21:12:28 10° NNE 21:16:53 87° W 21:21:14 10° SSW
GEOS 3 Rocket 3.7 21:12:22 13° SSE 21:17:04 88° SW 21:22:20 10° NNW
CZ-4B R/B 4.4 21:13:48 10° NE 21:18:13 29° E 21:21:21 17° SSE
H-2A R/B 2.0 21:16:34 13° SSE 21:20:23 80° ENE 21:24:45 10° N
Cosmos 1943 3.7 21:16:41 10° S 21:21:51 38° ESE 21:27:04 10° NE
Cosmos 1302 Rocket 4.1 21:17:16 10° NNW 21:22:30 80° WSW 21:27:19 12° SSE
Cosmos 1464 Rocket 4.1 21:16:45 10° N 21:22:53 76° W 21:29:03 10° S
GRACE-1 4.2 21:21:46 10° NNE 21:24:34 48° E 21:25:44 28° SSE
GRACE-2 4.2 21:22:13 10° NNE 21:25:01 48° E 21:26:09 28° SSE
Abrixas rocket 2.7 21:22:01 10° WNW 21:25:21 53° SW 21:27:07 24° SSE
ISS -2.1 21:25:26 10° WSW 21:28:33 44° NW 21:31:43 10° NE
Cosmos 1626 Rocket 3.7 21:24:08 10° S 21:28:35 80° W 21:33:00 10° N
Delta 168 4.3 21:31:20 10° SW 21:33:57 19° S 21:34:05 19° S
Cosmos 2228 3.7 21:30:35 10° NNW 21:34:54 55° W 21:39:11 10° S
CZ-2C R/B 2.8 21:35:35 11° SSW 21:37:12 20° W 21:39:03 10° NW
ATLAS 3B R/B 3.0 21:30:02 10° S 21:37:27 54° ESE 21:44:47 10° NE
ERS-1 Rocket 3.7 21:37:18 10° S 21:42:09 51° W 21:47:03 10° NNW
Cosmos 2034 Rocket 4.3 21:36:36 10° N 21:42:56 71° W 21:49:11 10° S
Lacrosse 4 Rocket 1.8 21:42:36 32° SE 21:43:37 38° ESE 21:47:24 10° NE
ALOS 4.4 21:42:03 10° SSW 21:45:42 22° W 21:49:21 10° NW
Meteor 2-12 Rocket 4.4 21:40:52 10° N 21:46:56 66° E 21:50:38 24° SSE
Cosmos 1953 Rocket 4.3 21:46:45 31° ESE 21:47:41 34° E 21:51:41 10° NNE
CZ-4 R/B 4.4 21:45:19 10° NNE 21:50:01 39° E 21:51:37 31° SE
CZ-4 SHROUD 3.2 21:49:29 42° S 21:50:25 81° WSW 21:53:35 10° NNW
Envisat 3.0 21:48:46 22° S 21:52:07 82° WSW 21:57:13 10° NNW
SPOT 5 2.5 21:52:51 29° SSE 21:55:04 87° WSW 21:59:26 10° NNW
Cosmos 407 Rocket 3.7 21:53:14 28° SSE 21:55:38 48° ESE 22:00:38 10° NNE
USA 234 4.1 21:51:11 17° E 21:55:43 41° NE 22:01:48 10° NNW
UNK 4.2 21:50:33 10° NNE 21:56:04 87° ESE 22:01:52 10° SSW
ARGOS 3.8 21:55:57 29° ESE 21:57:58 41° ENE 22:03:01 10° N
Cosmos 2346 Rocket 4.4 22:00:00 22° S 22:04:08 73° E 22:10:16 10° N
Terra 3.4 22:06:00 19° ENE 22:06:38 19° ENE 22:09:59 10° NNE
PSLV R/B 4.0 22:06:51 38° SW 22:07:25 43° W 22:10:25 10° NNW
Cosmos 2369 Rocket 2.4 22:03:01 10° NNW 22:08:35 56° ENE 22:10:29 38° ESE
Cosmos 1461 4.4 22:05:10 10° NW 22:08:46 28° WSW 22:10:23 21° SSW
MetOp-B 4.1 22:08:41 33° S 22:11:14 84° WSW 22:16:37 10° NNW
Cosmos 1954 Rocket 4.4 22:15:21 40° ESE 22:15:41 41° ESE 22:20:38 10° NNE
USA 238 DEB 4.1 22:16:02 35° SE 22:17:40 40° ESE 22:24:11 10° NE
USA 238 4.1 22:16:14 36° SE 22:17:47 40° ESE 22:24:16 10° NE
NOAA 11 4.3 22:16:57 42° SE 22:18:29 58° ENE 22:23:48 10° N
CZ-4C R/B 4.0 22:19:34 42° ENE 22:19:39 42° ENE 22:23:32 10° N
Cosmos 1758 Rocket 3.4 22:21:04 63° SE 22:21:34 71° E 22:25:55 10° NNE
YAOGAN 6 2.8 22:26:09 63° WSW 22:26:22 65° W 22:30:06 10° NNW
USA 81 4.1 22:21:32 10° N 22:26:50 76° W 22:28:46 40° SSW
DELTA 2 DEB (DPAF) 4.3 22:27:30 54° E 22:27:47 55° ENE 22:32:11 10° N
Atlas Centaur 2 3.0 22:23:55 10° W 22:31:26 62° S 22:34:57 36° ESE
Cosmos 1992 Rocket 4.3 22:26:32 10° NNW 22:31:41 61° WSW 22:33:11 43° SSW
BREEZE M DEB (TANK) 4.0 22:32:38 10° NW 22:33:25 19° NNW 22:33:25 19° NNW
Cosmos 2263 4.2 22:31:43 10° NNW 22:37:20 70° ENE 22:38:22 57° ESE
COSMOS 2406 3.7 22:39:41 41° E 22:39:41 41° E 22:44:31 10° NE
Cosmos 1953 3.8 22:36:29 10° NNE 22:38:56 26° NE 22:38:56 26° NE
SeaSat 1 3.2 22:41:06 37° SW 22:42:15 43° WSW 22:46:56 10° NW
H-2A R/B 2.1 22:47:47 56° E 22:47:53 57° ENE 22:52:49 10° N
Geosat 3.9 22:42:52 10° NNE 22:47:55 84° WNW 22:49:09 53° SW
Meteor 1-22 Rocket 4.4 22:42:21 10° NNW 22:47:58 71° W 22:49:29 49° SSW
Cosmos 1346 Rocket 4.3 22:52:42 29° W 22:53:27 31° WNW 22:56:59 10° NNW
SPOT 1/Viking Rocket 4.4 22:55:36 35° SW 22:56:51 41° W 23:01:42 10° NNW
Cosmos 1023 Rocket 4.5 23:01:55 69° ENE 23:01:55 69° ENE 23:06:47 10° NNE
Cosmos 1842 4.3 23:05:12 45° NNW 23:05:12 45° NNW 23:08:13 10° N
Cosmos 1092 Rocket 4.3 23:07:03 50° E 23:07:03 50° E 23:13:05 10° NNE
Cosmos 1140 Rocket 3.4 23:08:25 77° NE 23:08:25 77° NE 23:13:21 10° NNE
Cosmos 1943 Rocket 2.1 23:03:36 10° NNW 23:09:09 70° ENE 23:09:12 69° ENE
IGS 5A 4.3 23:11:16 49° N 23:11:16 49° N 23:14:22 10° N
Spot 2 4.5 23:07:35 10° N 23:12:25 76° WNW 23:12:25 76° WNW
Nadezhda 4 Rocket 3.8 23:16:48 75° SSE 23:17:23 85° E 23:23:45 10° N
DMSP B5D2-2 4.2 23:15:17 10° N 23:20:32 68° WNW 23:20:48 67° W
Cosmos 1656 Rocket 4.4 23:16:32 10° N 23:21:49 41° ENE 23:21:49 41° ENE
Lacrosse 4 Rocket 4.2 23:20:00 10° W 23:22:29 16° NW 23:25:00 10° NNW
ATLAS 3B R/B 4.4 23:21:38 10° WSW 23:28:28 34° NW 23:35:12 10° NNE
Spot 4 4.5 23:35:22 51° NW 23:35:22 51° NW 23:39:14 10° NNW
Cosmos 614 Rocket 4.4 23:35:47 58° NNE 23:35:47 58° NNE 23:39:57 10° NNE
NOSS 3-2 (A) 4.1 23:37:25 43° ENE 23:37:25 43° ENE 23:42:02 10° NE
USA 234 3.5 23:38:32 54° SW 23:38:33 54° SW 23:44:57 10° NW
CZ-4C R/B 3.4 23:43:54 31° ENE 23:43:54 31° ENE 23:47:03 10° NE
Meteor 2-5 Rocket 4.0 23:42:23 62° NE 23:42:23 62° NE 23:47:23 10° NNE
Terra 3.1 23:44:53 35° WNW 23:44:53 35° WNW 23:48:29 10° NNW
Cosmos 2369 Rocket 4.2 23:48:36 10° WNW 23:52:02 17° W 23:52:17 17° WSW
